When you browse on this site, cookies collect data to enhance your experience and personalize the content and advertising you see.
Visit our Privacy Policy to learn more. By continuing to use the site, you agree to this use of cookies and data.
  • în România
  • Lista ţărilor
  • Pe 7 zile
  • Temperatura apei
  • Hartă satelitară
  • Meteo pe hartă
  • Widget-uri
  • user-avatar
    Intrare

    Meteo pe oră la Igls

    Astăzi, 18 Februarie, Luni

    Timp Temperatura Precipitaţii Vânt Presiune Umiditate
    00:00 +2°C° 0 mm 2 m/s 689 mmHg 45%
    01:00 +2°C° 0 mm 2 m/s 689 mmHg 41%
    02:00 +2°C° 0 mm 2 m/s 688 mmHg 41%
    03:00 +1°C° 0 mm 2 m/s 688 mmHg 41%
    04:00 +1°C° 0 mm 2 m/s 688 mmHg 41%
    05:00 +1°C° 0 mm 2 m/s 688 mmHg 41%
    06:00 +1°C° 0 mm 2 m/s 688 mmHg 40%
    07:00 +2°C° 0 mm 2 m/s 688 mmHg 37%
    08:00 +3°C° 0 mm 2 m/s 688 mmHg 45%
    09:00 +5°C° 0 mm 2 m/s 687 mmHg 54%
    10:00 +7°C° 0 mm 2 m/s 687 mmHg 62%
    11:00 +8°C° 0 mm 2 m/s 687 mmHg 70%
    12:00 +9°C° 0 mm 2 m/s 687 mmHg 77%
    13:00 +11°C° 0 mm 1 m/s 687 mmHg 84%
    14:00 +10°C° 0 mm 1 m/s 686 mmHg 84%
    15:00 +10°C° 0 mm 1 m/s 686 mmHg 83%
    16:00 +10°C° 0 mm 1 m/s 686 mmHg 82%
    17:00 +7°C° 0 mm 2 m/s 685 mmHg 75%
    18:00 +5°C° 0 mm 2 m/s 685 mmHg 68%
    19:00 +3°C° 0 mm 2 m/s 685 mmHg 61%
    20:00 +3°C° 0 mm 2 m/s 686 mmHg 59%
    21:00 +3°C° 0 mm 2 m/s 686 mmHg 57%
    22:00 +2°C° 0 mm 2 m/s 686 mmHg 55%
    23:00 +2°C° 0 mm 2 m/s 686 mmHg 54%

    Mâine, 19 Februarie, Marţi

    Timp Temperatura Precipitaţii Vânt Presiune Umiditate
    00:00 +2°C° 0 mm 2 m/s 686 mmHg 54%
    01:00 +2°C° 0 mm 2 m/s 686 mmHg 54%
    02:00 +2°C° 0 mm 2 m/s 686 mmHg 54%
    03:00 +1°C° 0 mm 2 m/s 686 mmHg 54%
    04:00 +1°C° 0 mm 2 m/s 686 mmHg 53%
    05:00 +2°C° 0 mm 1 m/s 686 mmHg 54%
    06:00 +2°C° 0 mm 1 m/s 686 mmHg 55%
    07:00 +2°C° 0 mm 1 m/s 686 mmHg 55%
    08:00 +3°C° 0 mm 1 m/s 686 mmHg 61%
    09:00 +5°C° 0 mm 1 m/s 686 mmHg 66%
    10:00 +6°C° 0 mm 0 m/s 686 mmHg 71%
    11:00 +7°C° 0 mm 0 m/s 686 mmHg 72%
    12:00 +7°C° 0 mm 0 m/s 686 mmHg 74%
    13:00 +9°C° 0 mm 1 m/s 686 mmHg 75%
    14:00 +8°C° 0 mm 1 m/s 685 mmHg 78%
    15:00 +8°C° 0 mm 1 m/s 685 mmHg 80%
    16:00 +8°C° 0 mm 1 m/s 685 mmHg 83%
    17:00 +6°C° 0 mm 1 m/s 685 mmHg 85%
    18:00 +4°C° 0 mm 1 m/s 686 mmHg 88%
    19:00 +2°C° 0 mm 1 m/s 686 mmHg 90%
    20:00 +2°C° 0 mm 1 m/s 686 mmHg 89%
    21:00 +2°C° 0 mm 1 m/s 686 mmHg 89%
    22:00 +2°C° 0 mm 1 m/s 687 mmHg 88%
    23:00 +1°C° 0 mm 1 m/s 687 mmHg 85%

    Poimâine, 20 Februarie, Miercuri

    Timp Temperatura Precipitaţii Vânt Presiune Umiditate
    00:00 +1°C° 0 mm 1 m/s 687 mmHg 83%
    01:00 +1°C° 0 mm 1 m/s 687 mmHg 80%
    02:00 +1°C° 0 mm 1 m/s 687 mmHg 76%
    03:00 +1°C° 0 mm 1 m/s 687 mmHg 73%
    04:00 +1°C° 0 mm 1 m/s 687 mmHg 69%
    05:00 +1°C° 0 mm 1 m/s 687 mmHg 68%
    06:00 +1°C° 0 mm 1 m/s 687 mmHg 66%
    07:00 +1°C° 0 mm 1 m/s 687 mmHg 64%
    08:00 +2°C° 0 mm 1 m/s 688 mmHg 65%
    09:00 +4°C° 0 mm 1 m/s 688 mmHg 66%
    10:00 +5°C° 0 mm 0 m/s 689 mmHg 67%
    11:00 +6°C° 0 mm 0 m/s 689 mmHg 69%
    12:00 +7°C° 0 mm 0 m/s 689 mmHg 71%
    13:00 +8°C° 0 mm 0 m/s 689 mmHg 73%
    14:00 +7°C° 0 mm 0 m/s 688 mmHg 75%
    15:00 +7°C° 0 mm 0 m/s 688 mmHg 78%
    16:00 +7°C° 0 mm 0 m/s 688 mmHg 80%
    17:00 +6°C° 0 mm 1 m/s 688 mmHg 82%
    18:00 +5°C° 0 mm 1 m/s 688 mmHg 84%
    19:00 +3°C° 0 mm 1 m/s 689 mmHg 86%
    20:00 +3°C° 0 mm 1 m/s 689 mmHg 85%
    21:00 +3°C° 0 mm 1 m/s 689 mmHg 84%
    22:00 +3°C° 0 mm 1 m/s 690 mmHg 82%
    23:00 +3°C° 0 mm 1 m/s 690 mmHg 80%

    21 Februarie, Joi

    Timp Temperatura Precipitaţii Vânt Presiune Umiditate
    00:00 +3°C° 0 mm 1 m/s 690 mmHg 77%
    01:00 +3°C° 0 mm 1 m/s 690 mmHg 74%
    02:00 +3°C° 0 mm 1 m/s 690 mmHg 71%
    03:00 +3°C° 0 mm 1 m/s 690 mmHg 68%
    04:00 +3°C° 0 mm 1 m/s 690 mmHg 65%
    05:00 +3°C° 0 mm 1 m/s 690 mmHg 63%
    06:00 +3°C° 0 mm 1 m/s 691 mmHg 61%
    07:00 +3°C° 0 mm 1 m/s 691 mmHg 59%
    08:00 +5°C° 0 mm 1 m/s 691 mmHg 61%
    09:00 +6°C° 0 mm 1 m/s 692 mmHg 63%
    10:00 +8°C° 0 mm 1 m/s 692 mmHg 66%
    11:00 +8°C° 0 mm 1 m/s 692 mmHg 67%
    12:00 +9°C° 0 mm 1 m/s 692 mmHg 68%
    13:00 +10°C° 0 mm 1 m/s 692 mmHg 69%
    14:00 +9°C° 0 mm 1 m/s 692 mmHg 71%
    15:00 +9°C° 0 mm 1 m/s 692 mmHg 73%
    16:00 +9°C° 0 mm 1 m/s 692 mmHg 75%
    17:00 +7°C° 0 mm 1 m/s 692 mmHg 75%
    18:00 +6°C° 0 mm 1 m/s 692 mmHg 74%
    19:00 +5°C° 0 mm 1 m/s 693 mmHg 74%
    20:00 +5°C° 0 mm 1 m/s 693 mmHg 72%
    21:00 +4°C° 0 mm 1 m/s 693 mmHg 70%
    22:00 +4°C° 0 mm 1 m/s 694 mmHg 68%
    23:00 +4°C° 0 mm 1 m/s 694 mmHg 68%

    22 Februarie, Vineri

    Timp Temperatura Precipitaţii Vânt Presiune Umiditate
    00:00 +4°C° 0 mm 1 m/s 694 mmHg 67%
    01:00 +4°C° 0 mm 1 m/s 694 mmHg 67%
    02:00 +4°C° 0 mm 1 m/s 694 mmHg 67%
    03:00 +4°C° 0 mm 1 m/s 694 mmHg 67%
    04:00 +4°C° 0 mm 1 m/s 694 mmHg 66%
    05:00 +4°C° 0 mm 1 m/s 695 mmHg 66%
    06:00 +4°C° 0 mm 1 m/s 695 mmHg 66%
    07:00 +4°C° 0 mm 1 m/s 695 mmHg 65%
    08:00 +6°C° 0 mm 1 m/s 696 mmHg 67%
    09:00 +7°C° 0 mm 1 m/s 696 mmHg 68%
    10:00 +9°C° 0 mm 1 m/s 696 mmHg 70%
    11:00 +10°C° 0 mm 1 m/s 696 mmHg 71%
    12:00 +10°C° 0 mm 1 m/s 696 mmHg 73%
    13:00 +11°C° 0 mm 1 m/s 697 mmHg 74%
    14:00 +10°C° 0 mm 1 m/s 696 mmHg 78%
    15:00 +10°C° 0 mm 1 m/s 696 mmHg 81%
    16:00 +9°C° 0 mm 1 m/s 696 mmHg 85%
    17:00 +8°C° 0 mm 1 m/s 696 mmHg 86%
    18:00 +7°C° 0 mm 1 m/s 696 mmHg 87%
    19:00 +6°C° 0 mm 1 m/s 696 mmHg 87%
    20:00 +6°C° 0 mm 1 m/s 697 mmHg 87%
    21:00 +6°C° 0 mm 1 m/s 697 mmHg 86%
    22:00 +5°C° 0 mm 1 m/s 697 mmHg 86%
    23:00 +5°C° 0 mm 1 m/s 697 mmHg 85%

    23 Februarie, Sâmbătă

    Timp Temperatura Precipitaţii Vânt Presiune Umiditate
    00:00 +5°C° 0 mm 1 m/s 697 mmHg 84%
    01:00 +5°C° 0 mm 1 m/s 697 mmHg 83%
    02:00 +5°C° 0 mm 1 m/s 697 mmHg 81%
    03:00 +5°C° 0 mm 1 m/s 697 mmHg 78%
    04:00 +5°C° 0 mm 1 m/s 697 mmHg 76%
    05:00 +6°C° 0 mm 1 m/s 697 mmHg 74%
    06:00 +6°C° 0 mm 1 m/s 697 mmHg 72%
    07:00 +6°C° 0 mm 1 m/s 697 mmHg 69%
    08:00 +7°C° 0 mm 1 m/s 697 mmHg 69%
    09:00 +9°C° 0 mm 1 m/s 698 mmHg 68%
    10:00 +11°C° 0 mm 1 m/s 698 mmHg 67%
    11:00 +12°C° 0 mm 1 m/s 698 mmHg 65%
    12:00 +13°C° 0 mm 1 m/s 698 mmHg 64%
    13:00 +14°C° 0 mm 1 m/s 698 mmHg 62%
    14:00 +13°C° 0 mm 1 m/s 697 mmHg 66%
    15:00 +13°C° 0 mm 1 m/s 697 mmHg 69%
    16:00 +12°C° 0 mm 1 m/s 697 mmHg 73%
    17:00 +11°C° 0 mm 1 m/s 697 mmHg 72%
    18:00 +9°C° 0 mm 1 m/s 697 mmHg 70%
    19:00 +8°C° 0 mm 1 m/s 697 mmHg 69%
    20:00 +8°C° 0 mm 1 m/s 697 mmHg 67%
    21:00 +8°C° 0 mm 1 m/s 697 mmHg 64%
    22:00 +8°C° 0 mm 1 m/s 697 mmHg 62%
    23:00 +8°C° 0 mm 1 m/s 697 mmHg 61%
    Arată mai mult